記事タイトル:Comet P/2002 T5 (LINEAR) 

最新の情報は「更新」や「再読み込み」ボタンを押してリロードしてご覧ください。

書き込み欄へ  ヘルプ
お名前: 佐藤 裕久   
LINEARによって発見された小惑星状の天体は、NEO Confirmation Page に公表され、
彗星であることがわかった。
10月18.4日UT、D. T. Durig と J. A. K. Blackwoo (Cordell-Lorenz天文台、0.30-m
反射+CCD)の観測では、拡散状で、P.A.330°に12"-15" の尾の気配があり5"-8"の柔ら
かいコマがある。
ほぼ同じ時間にG. Hug (Farpoint天文台、0.30-m Schmidt-Cassegrain +CCD)が得た
画像では、コマは星状に近くP.A.約280°に10"-15"伸びている。

発見位置は次のとおり、

     2002 UT             R.A. (2000) Decl.        m1
     Oct.  5.38947    4 44 17.33   -12 15 26.7   18.4

軌道要素と位置推算表は次のとおり、

Orbital elements:
    P/2002 T5 (LINEAR)
T 2003 July 1.7593 TT                                   MPC
q   3.924792             (2000.0)            P               Q
n   0.0533480      Peri.  327.4640      -0.0768358      -0.8997825
a   6.988610       Node   123.2783      +0.9888519      -0.1238801
e   0.438402       Incl.   30.9153      +0.1275469      +0.4183839
P  18.5
From 44 observations 2002 Oct. 5-22.

Ephemeris:
    P/2002 T5 (LINEAR)
Date    TT    R. A. (2000) Decl.     Delta      r     Elong.  Phase   m1
2002 10 13    04 43.97   -12 50.9    3.563    4.196   123.5    11.4  17.0
2002 10 23    04 42.16   -13 33.0    3.462    4.177   130.5    10.4  16.9
2002 11 02    04 38.86   -14 06.7    3.380    4.158   136.7     9.4  16.8
2002 11 12    04 34.29   -14 28.1    3.319    4.140   141.5     8.6  16.8
2002 11 22    04 28.83   -14 33.6    3.282    4.123   144.0     8.1  16.7
2002 12 02    04 22.94   -14 21.0    3.270    4.106   143.7     8.2  16.7
2002 12 12    04 17.14   -13 49.3    3.282    4.090   140.5     8.8  16.7
2002 12 22    04 11.96   -12 59.2    3.319    4.075   135.1     9.8  16.7
2003 01 01    04 07.82   -11 52.8    3.377    4.060   128.2    11.0  16.7
2003 01 11    04 05.06   -10 32.9    3.455    4.046   120.6    12.1  16.8
2003 01 21    04 03.88   -09 03.0    3.549    4.032   112.7    13.0  16.8
2003 01 31    04 04.33   -07 26.5    3.656    4.020   104.6    13.7  16.9
2003 02 10    04 06.41   -05 46.5    3.772    4.008    96.6    14.2  16.9
2003 02 20    04 10.05   -04 05.5    3.893    3.997    88.8    14.3  17.0
2003 03 02    04 15.11   -02 25.8    4.017    3.986    81.1    14.2  17.0
2003 03 12    04 21.47   -00 48.8    4.140    3.977    73.7    13.9  17.1
2003 03 22    04 28.97   +00 44.0    4.260    3.968    66.4    13.3  17.1
2003 04 01    04 37.48   +02 11.9    4.375    3.960    59.4    12.5  17.2
2003 04 11    04 46.88   +03 33.9    4.482    3.953    52.5    11.6  17.2
2003 04 21    04 57.02   +04 49.7    4.579    3.946    45.9    10.5  17.3
2003 05 01    05 07.79   +05 58.8    4.666    3.941    39.5     9.4  17.3
2003 05 11    05 19.09   +07 01.1    4.741    3.936    33.3     8.1  17.3

(IAUC 7998、MPEC 2002-U20)
[2002年10月23日 6時50分17秒]

この記事への返信をどうぞ。
氏名
E-mail URL



記事一覧に戻る